Smyrna, TN

11:09 PM CST on December 14, 2017 (GMT -0600)
Smyrna

Weather History for KMQY - August, 2013

Change the Weather History Date:

Monday, August 19, 2013

  Actual Average Record
Temperature  
Mean Temperature 77 °F -  
Max Temperature 86 °F 85 °F 104 °F (2007)
Min Temperature 68 °F 67 °F 63 °F (2012)
Cooling Degree Days 12    
Growing Degree Days 27 (Base 50)    
Moisture  
Dew Point 69 °F    
Average Humidity 78    
Maximum Humidity 100    
Minimum Humidity 55    
Precipitation  
Precipitation 0.00 in - - ()
Sea Level Pressure  
Sea Level Pressure 30.13 in    
Wind  
Wind Speed 1 mph (SSE)    
Max Wind Speed 7 mph    
Max Gust Speed -    
Visibility 10 miles    
Events      
Averages and records for this station are not official NWS values.
T = Trace of Precipitation, MM = Missing Value Source: NWS Daily Summary

Daily Weather History Graph

Daily Weather History Graph

Search for Another Location

Airport or City:

Trip Planner

Search our weather history database for the weather conditions in past years. The results will help you decide how hot, cold, wet, or windy it might be!

Date:

Astronomy

Aug. 19, 2013 Rise Set
Actual Time 6:07 AM CDT 7:30 PM CDT
Civil Twilight 5:40 AM CDT 7:57 PM CDT
Nautical Twilight 5:08 AM CDT 8:29 PM CDT
Astronomical Twilight 4:34 AM CDT 9:03 PM CDT
Moon 6:21 PM CDT (8/19) 4:27 AM CDT (8/19)
Length of Visible Light 14h 16m
Length of Day
13h 22m
Waxing Gibbous, 97% of the Moon is Illuminated
Aug 19
Waxing Gibbous
Aug 20
Full
Aug 28
Last Quarter
Sep 5
New
Sep 12
First Quarter

Hourly Weather History & Observations

Time (CDT) Temp. Heat Index Dew Point Humidity Pressure Visibility Wind Dir Wind Speed Gust Speed Precip Events Conditions
12:56 AM 70.9 °F - 68.9 °F 93% 30.15 in 10.0 mi Calm Calm - N/A   Overcast
1:56 AM 70.0 °F - 68.9 °F 96% 30.14 in 10.0 mi Calm Calm - N/A   Overcast
2:56 AM 70.0 °F - 68.9 °F 96% 30.12 in 10.0 mi Calm Calm - N/A   Overcast
3:56 AM 68.9 °F - 68.0 °F 97% 30.12 in 10.0 mi SE 4.6 mph - N/A   Scattered Clouds
4:56 AM 68.0 °F - 68.0 °F 100% 30.13 in 5.0 mi Calm Calm - N/A   Scattered Clouds
5:56 AM 68.9 °F - 68.9 °F 100% 30.15 in 10.0 mi Calm Calm - N/A   Mostly Cloudy
6:56 AM 70.0 °F - 68.9 °F 96% 30.16 in 10.0 mi Calm Calm - N/A   Overcast
7:56 AM 70.9 °F - 68.9 °F 93% 30.16 in 10.0 mi Calm Calm - N/A   Mostly Cloudy
8:56 AM 74.8 °F - 68.0 °F 79% 30.16 in 10.0 mi Calm Calm - N/A   Mostly Cloudy
9:23 AM 75.2 °F - 68.0 °F 78% 30.15 in 10.0 mi Calm Calm - N/A   Mostly Cloudy
9:56 AM 77.0 °F - 68.0 °F 74% 30.17 in 10.0 mi Calm Calm - N/A   Mostly Cloudy
10:00 AM 75.2 °F - 68.0 °F 78% 30.16 in 10.0 mi Calm Calm - N/A   Mostly Cloudy
10:56 AM 79.9 °F - 68.9 °F 69% 30.17 in 10.0 mi Calm Calm - N/A   Mostly Cloudy
11:56 AM 81.9 °F 84.8 °F 68.0 °F 63% 30.15 in 10.0 mi Calm Calm - N/A   Mostly Cloudy
12:03 PM 80.6 °F 83.2 °F 68.0 °F 65% 30.14 in 10.0 mi Calm Calm - N/A   Mostly Cloudy
12:56 PM 82.9 °F 85.4 °F 66.9 °F 58% 30.14 in 10.0 mi Calm Calm - N/A   Partly Cloudy
1:56 PM 84.9 °F 87.6 °F 66.9 °F 55% 30.12 in 10.0 mi Calm Calm - N/A   Mostly Cloudy
2:56 PM 84.9 °F 88.2 °F 68.0 °F 57% 30.10 in 10.0 mi SSE 5.8 mph - N/A   Scattered Clouds
3:56 PM 86.0 °F 89.7 °F 68.9 °F 56% 30.09 in 10.0 mi Variable 6.9 mph - N/A   Mostly Cloudy
4:56 PM 84.9 °F 88.2 °F 68.0 °F 57% 30.07 in 10.0 mi Calm Calm - N/A   Mostly Cloudy
5:56 PM 84.9 °F 88.8 °F 68.9 °F 59% 30.07 in 10.0 mi Calm Calm - N/A   Partly Cloudy
6:56 PM 79.0 °F - 68.9 °F 71% 30.08 in 10.0 mi Calm Calm - N/A   Scattered Clouds
7:56 PM 77.9 °F - 70.0 °F 76% 30.08 in 10.0 mi Calm Calm - N/A   Scattered Clouds
8:56 PM 77.9 °F - 70.0 °F 76% 30.10 in 10.0 mi Calm Calm - N/A   Scattered Clouds
9:56 PM 75.9 °F - 70.9 °F 84% 30.11 in 10.0 mi Calm Calm - N/A   Scattered Clouds
10:56 PM 75.9 °F - 70.9 °F 84% 30.11 in 10.0 mi Calm Calm - N/A   Scattered Clouds
11:56 PM 74.8 °F - 72.0 °F 91% 30.11 in 10.0 mi Calm Calm - N/A   Mostly Cloudy